TimeEST,TemperatureF,Dew PointF,Humidity,Sea Level PressureIn,VisibilityMPH,Wind Direction,Wind SpeedMPH,Gust SpeedMPH,PrecipitationIn,Events,Conditions,WindDirDegrees,DateUTC
12:15 AM,32.0,19.0,59,30.10,10.0,WSW,6.9,-,N/A,,Overcast,240,2012-11-25 05:15:00
12:35 AM,32.0,18.9,58,30.10,10.0,SW,5.8,-,N/A,,Overcast,230,2012-11-25 05:35:00
12:55 AM,32.0,18.5,58,30.10,10.0,WSW,8.1,-,N/A,,Mostly Cloudy,240,2012-11-25 05:55:00
1:15 AM,30.4,18.5,61,30.09,10.0,SW,4.6,-,N/A,,Scattered Clouds,230,2012-11-25 06:15:00
1:35 AM,29.3,18.5,64,30.09,10.0,SSW,3.5,-,N/A,,Clear,210,2012-11-25 06:35:00
1:55 AM,29.5,19.2,66,30.08,10.0,SSW,3.5,-,N/A,,Clear,210,2012-11-25 06:55:00
2:15 AM,30.2,19.9,66,30.08,10.0,South,3.5,-,N/A,,Clear,190,2012-11-25 07:15:00
2:35 AM,30.6,19.9,65,30.09,10.0,South,3.5,-,N/A,,Scattered Clouds,190,2012-11-25 07:35:00
2:55 AM,30.2,20.1,66,30.08,10.0,Calm,Calm,-,N/A,,Mostly Cloudy,0,2012-11-25 07:55:00
3:15 AM,30.2,20.5,67,30.07,10.0,South,3.5,-,N/A,,Overcast,180,2012-11-25 08:15:00
3:35 AM,30.2,20.1,66,30.06,10.0,SSW,5.8,-,N/A,,Overcast,200,2012-11-25 08:35:00
3:55 AM,30.0,19.9,66,30.06,10.0,SSW,5.8,-,N/A,,Overcast,200,2012-11-25 08:55:00
4:15 AM,30.0,19.9,66,30.06,10.0,SSW,4.6,-,N/A,,Mostly Cloudy,200,2012-11-25 09:15:00
4:35 AM,30.2,20.1,66,30.05,10.0,South,5.8,-,N/A,,Scattered Clouds,180,2012-11-25 09:35:00
4:55 AM,30.2,20.1,66,30.06,10.0,South,5.8,-,N/A,,Clear,180,2012-11-25 09:55:00
5:15 AM,30.6,19.6,64,30.04,10.0,South,5.8,-,N/A,,Clear,170,2012-11-25 10:15:00
5:35 AM,30.6,19.8,64,30.04,10.0,South,6.9,-,N/A,,Scattered Clouds,180,2012-11-25 10:35:00
5:55 AM,30.7,19.6,63,30.05,10.0,South,6.9,-,N/A,,Scattered Clouds,190,2012-11-25 10:55:00
6:15 AM,30.9,19.8,63,30.03,10.0,South,10.4,-,N/A,,Scattered Clouds,180,2012-11-25 11:15:00
6:35 AM,31.1,19.8,63,30.03,10.0,South,11.5,-,N/A,,Scattered Clouds,190,2012-11-25 11:35:00
6:55 AM,31.5,19.4,61,30.03,10.0,South,11.5,17.3,N/A,,Mostly Cloudy,180,2012-11-25 11:55:00
7:15 AM,31.5,19.4,61,30.03,10.0,South,12.7,-,N/A,,Overcast,190,2012-11-25 12:15:00
7:35 AM,31.5,19.6,62,30.01,10.0,South,11.5,-,N/A,,Mostly Cloudy,180,2012-11-25 12:35:00
7:55 AM,31.5,19.9,62,30.00,10.0,South,10.4,-,N/A,,Overcast,190,2012-11-25 12:55:00
8:15 AM,31.8,19.9,62,30.01,10.0,South,12.7,-,N/A,,Overcast,190,2012-11-25 13:15:00
8:35 AM,31.8,20.3,62,30.00,10.0,South,13.8,-,N/A,,Overcast,190,2012-11-25 13:35:00
8:55 AM,32.0,20.3,62,30.00,10.0,South,11.5,-,N/A,,Overcast,190,2012-11-25 13:55:00
9:15 AM,32.2,20.7,63,29.99,10.0,South,13.8,-,N/A,,Overcast,190,2012-11-25 14:15:00
9:35 AM,32.7,20.8,62,29.99,10.0,South,13.8,-,N/A,,Overcast,190,2012-11-25 14:35:00
9:55 AM,33.6,21.2,60,29.98,10.0,South,13.8,-,N/A,,Overcast,190,2012-11-25 14:55:00
10:15 AM,34.3,21.2,59,29.98,10.0,South,15.0,-,N/A,,Mostly Cloudy,180,2012-11-25 15:15:00
10:35 AM,35.6,21.6,57,29.97,10.0,SSW,12.7,-,N/A,,Mostly Cloudy,200,2012-11-25 15:35:00
10:55 AM,37.2,21.6,53,29.97,10.0,SSW,11.5,19.6,N/A,,Overcast,210,2012-11-25 15:55:00
11:15 AM,38.5,20.5,48,29.96,10.0,SSW,20.7,24.2,N/A,,Overcast,210,2012-11-25 16:15:00
11:35 AM,39.0,19.9,46,29.95,10.0,SW,17.3,23.0,N/A,,Scattered Clouds,220,2012-11-25 16:35:00
11:55 AM,40.6,20.5,45,29.94,10.0,SW,15.0,-,N/A,,Scattered Clouds,220,2012-11-25 16:55:00
12:15 PM,42.8,20.8,42,29.92,10.0,SW,17.3,21.9,N/A,,Overcast,230,2012-11-25 17:15:00
12:35 PM,43.7,19.8,38,29.91,10.0,SW,18.4,24.2,N/A,,Overcast,230,2012-11-25 17:35:00
12:55 PM,43.5,20.1,39,29.90,10.0,SW,15.0,23.0,N/A,,Scattered Clouds,230,2012-11-25 17:55:00
1:15 PM,43.3,20.5,40,29.90,10.0,WSW,13.8,21.9,N/A,,Clear,250,2012-11-25 18:15:00
1:35 PM,45.0,21.0,39,29.90,10.0,SW,13.8,20.7,N/A,,Clear,220,2012-11-25 18:35:00
1:55 PM,45.5,20.5,37,29.88,10.0,SW,17.3,25.3,N/A,,Clear,230,2012-11-25 18:55:00
2:15 PM,45.7,20.7,37,29.89,10.0,SW,16.1,-,N/A,,Clear,230,2012-11-25 19:15:00
2:35 PM,44.8,20.8,39,29.88,10.0,WSW,15.0,18.4,N/A,,Clear,240,2012-11-25 19:35:00
2:55 PM,44.4,21.4,40,29.88,10.0,WSW,12.7,-,N/A,,Clear,240,2012-11-25 19:55:00
3:15 PM,45.9,21.2,38,29.88,10.0,SW,10.4,-,N/A,,Clear,230,2012-11-25 20:15:00
3:35 PM,45.9,21.2,38,29.89,10.0,WSW,11.5,-,N/A,,Clear,250,2012-11-25 20:35:00
3:55 PM,45.1,21.7,40,29.89,10.0,SW,9.2,-,N/A,,Clear,230,2012-11-25 20:55:00
4:15 PM,44.6,22.5,42,29.91,10.0,SW,12.7,-,N/A,,Clear,230,2012-11-25 21:15:00
4:35 PM,43.5,22.3,43,29.91,10.0,SW,10.4,-,N/A,,Clear,230,2012-11-25 21:35:00
4:55 PM,43.3,21.9,43,29.92,10.0,SW,10.4,-,N/A,,Clear,230,2012-11-25 21:55:00
5:15 PM,42.6,21.9,44,29.92,10.0,SW,9.2,-,N/A,,Clear,230,2012-11-25 22:15:00
5:35 PM,41.5,22.1,46,29.92,10.0,SW,6.9,-,N/A,,Clear,230,2012-11-25 22:35:00
5:55 PM,40.3,22.8,50,29.92,10.0,WSW,8.1,-,N/A,,Clear,240,2012-11-25 22:55:00
6:15 PM,39.7,23.0,51,29.93,10.0,SW,5.8,-,N/A,,Clear,220,2012-11-25 23:15:00
6:35 PM,38.7,23.2,54,29.94,10.0,SW,5.8,-,N/A,,Clear,220,2012-11-25 23:35:00
6:55 PM,39.6,23.2,52,29.94,10.0,SSW,4.6,-,N/A,,Clear,210,2012-11-25 23:55:00
7:15 PM,39.2,23.0,52,29.95,10.0,SW,6.9,-,N/A,,Clear,220,2012-11-26 00:15:00
7:35 PM,38.3,23.0,54,29.95,10.0,SSW,5.8,-,N/A,,Clear,200,2012-11-26 00:35:00
7:55 PM,38.3,23.4,55,29.97,10.0,SW,4.6,-,N/A,,Clear,220,2012-11-26 00:55:00
8:15 PM,38.1,23.7,56,29.97,10.0,SW,3.5,-,N/A,,Clear,220,2012-11-26 01:15:00
8:35 PM,37.4,24.3,59,29.98,10.0,WSW,4.6,-,N/A,,Clear,240,2012-11-26 01:35:00
8:55 PM,37.4,24.3,59,29.98,10.0,SW,3.5,-,N/A,,Clear,220,2012-11-26 01:55:00
9:15 PM,37.2,25.2,62,29.98,10.0,WSW,4.6,-,N/A,,Clear,240,2012-11-26 02:15:00
9:35 PM,37.6,25.5,62,29.98,10.0,Calm,Calm,-,N/A,,Clear,0,2012-11-26 02:35:00
9:55 PM,38.1,25.3,60,29.98,10.0,SW,4.6,-,N/A,,Clear,220,2012-11-26 02:55:00
10:15 PM,37.8,25.7,62,29.98,10.0,SW,3.5,-,N/A,,Clear,230,2012-11-26 03:15:00
10:35 PM,37.2,25.7,63,29.99,10.0,WSW,4.6,-,N/A,,Clear,240,2012-11-26 03:35:00
10:55 PM,36.9,25.7,64,29.99,10.0,SW,4.6,-,N/A,,Clear,230,2012-11-26 03:55:00
11:15 PM,37.0,26.1,65,30.01,10.0,WSW,4.6,-,N/A,,Clear,240,2012-11-26 04:15:00
11:35 PM,36.9,26.4,66,30.01,10.0,West,4.6,-,N/A,,Clear,280,2012-11-26 04:35:00
11:55 PM,38.3,26.2,62,30.01,10.0,West,4.6,-,N/A,,Mostly Cloudy,260,2012-11-26 04:55:00